Flag for Canada Weather past 2 weeks in Sault Ste. Marie, Ontario, Canada

Now
9 °F

Broken clouds.


Feels Like: -5 °F
Forecast: -4 / 16 °F
Wind: 9 mph from Southeast

Location: Sault Ste Marie

Current Time: Jan 26, 2015 at 12:21:04 PM

Latest Report: Jan 26, 2015 at 12:00 PM


Visibility: 15 mi

Pressure: 30.08 "Hg

Humidity: 72%

Dew point: 1 °F

Location of Sault Ste. MarieLocation

Historic Weather in Sault Ste. Marie — Graph

°F

Sault Ste. Marie temperature yesterday

Maximum temperature yesterday: 7 °F (at 3:00 PM)
Minimum temperature yesterday: -15 °F (at 8:00 AM)
Average temperature yesterday: -2 °F

Past Weeks' High & Low Weather Summary

 TemperatureHumidityPressure
High34 °F (Jan 24, 7:00 AM)100% (Jan 18, 1:00 AM)30.82 "Hg (Jan 18, 1:00 AM)
Low-15 °F (Jan 25, 8:00 AM)37% (Jan 20, 4:00 PM)29.41 "Hg (Jan 18, 1:00 AM)
Average13 °F78%30.07 "Hg
* Reported Jan 11 11:00 AM — Jan 26 11:00 AM, Sault Ste. Marie, Weather by CustomWeather, © 2014

Note: Actual official high and low records may vary slightly from our data, if they occured in-between our weather recording intervals... More about our weather records

Advertising

Sault Ste. Marie weather history for previous 24 hours

 ConditionsComfort  
Time TempWeatherWind HumidityBarometerVisibility
11:00 AM
Jan 26
7 °FBroken clouds.10 mph72%30.09 "Hg15 mi
10:00 AM1 °FBroken clouds.6 mph85%30.08 "Hg15 mi
9:00 AM0 °FPartly sunny.6 mph78%30.09 "Hg15 mi
8:00 AM-2 °FLight snow. Partly cloudy.6 mph71%30.09 "Hg15 mi
7:00 AM-2 °FPartly cloudy.2 mph77%30.10 "Hg15 mi
6:00 AM-6 °FPassing clouds.2 mph70%30.10 "Hg15 mi
5:00 AM-2 °FPassing clouds.2 mph71%30.09 "Hg15 mi
4:00 AM-4 °FPassing clouds.2 mph84%30.10 "Hg15 mi
3:00 AM-13 °FPassing clouds.2 mph76%30.12 "Hg15 mi
2:00 AM-4 °FPassing clouds.2 mph84%30.12 "Hg15 mi
1:00 AM-9 °FPassing clouds.2 mph77%30.13 "Hg15 mi
12:00 AM-13 °FPassing clouds.2 mph69%30.15 "Hg15 mi
11:00 PM
Jan 25
-13 °FPassing clouds.2 mph83%30.16 "Hg15 mi
10:00 PM-11 °FPassing clouds.No wind58%30.19 "Hg15 mi
9:00 PM-8 °FPassing clouds.No wind58%30.19 "Hg15 mi
8:00 PM-6 °FPassing clouds.6 mph64%30.19 "Hg15 mi
7:00 PM-4 °FPassing clouds.6 mph45%30.17 "Hg15 mi
6:00 PM1 °FPassing clouds.6 mph50%30.16 "Hg15 mi
5:00 PM5 °FScattered clouds.6 mph46%30.15 "Hg15 mi
4:00 PM7 °FPartly sunny.10 mph47%30.15 "Hg15 mi
3:00 PM7 °FBroken clouds.10 mph47%30.14 "Hg15 mi
2:00 PM5 °FPartly sunny.16 mph46%30.14 "Hg15 mi
1:00 PM5 °FScattered clouds.10 mph51%30.13 "Hg15 mi
12:00 PM1 °FScattered clouds.10 mph55%30.12 "Hg15 mi
Weather by CustomWeather, © 2014

See weather overviewHow to use our weather pages